Regional Weather Roundup
Issued by NWS Northern Indiana

Home | Current Version | Previous Version | Graphics & Text | Print | Product List | Glossary On
Versions: 1 2 3 4 5 6 7 8 9 10 11 12 13 14 15 16 17 18 19 20 21 22 23 24 25 26 27 28 29 30 31 32 33 34 35 36 37 38 39 40 41 42 43 44 45 46 47 48 49 50
000
ASUS43 KIWX 281900
RWRIWX

KIWX WEATHER ROUNDUP
NATIONAL WEATHER SERVICE NORTHERN INDIANA
300 PM EDT THU AUG 28 2014

NOTE: "FAIR" INDICATES FEW OR NO CLOUDS BELOW 12,000 FEET WITH NO
SIGNIFICANT WEATHER AND/OR OBSTRUCTIONS TO VISIBILITY.

* THESE STATIONS ARE NOT UNDER NWS QUALITY CONTROL. THEY ALSO MAY NOT
  REPORT WEATHER SUCH AS PRECIPITATION OR FOG.

INZ001>027-282000-
NORTHERN INDIANA

CITY           SKY/WX    TMP DP  RH WIND       PRES   REMARKS
GARY*          MOSUNNY   75  61  60 NE9       30.10F
VALPARAISO     MOSUNNY   78  62  57 VRB3      30.10F
KNOX*          MOSUNNY   77  61  57 E5        30.09F
SOUTH BEND     MOSUNNY   78  59  51 E6        30.11F
GOSHEN         MOSUNNY   79  61  53 SE3       30.11F
MONTICELLO*    MOSUNNY   80  65  60 NE5       30.07F
ANGOLA*        MOSUNNY   77  72  83 VRB5      30.12F
FORT WAYNE     PTSUNNY   76  63  64 E7        30.11F
PERU/GRISSOM   SUNNY     80  67  66 VRB5      30.08F

$$
INZ028>050-282000-
CENTRAL INDIANA

CITY           SKY/WX    TMP DP  RH WIND       PRES   REMARKS
LAFAYETTE      SUNNY     79  63  57 NE3       30.06F
KOKOMO*        MOSUNNY   81  64  57 SE7       30.08F
MUNCIE*        SUNNY     79  62  56 SE7       30.09F
INDIANAPOLIS   MOSUNNY   82  65  56 E5        30.06F

$$
MIZ043>046-050>051-056>058-064>065-071>073-077>080-282000-
SOUTHWEST LOWER MICHIGAN

CITY           SKY/WX    TMP DP  RH WIND       PRES   REMARKS
BATTLE CREEK   PTSUNNY   74  56  53 VRB6      30.14F
BENTON HARBOR  SUNNY     77  57  50 VRB5      30.11F
COLDWATER*     SUNNY     76  56  49 CALM      30.13S
HILLSDALE*     MOSUNNY   73  55  53 E3        30.14S
HOLLAND        SUNNY     75  56  51 E10       30.14F
GRAND RAPIDS   MOSUNNY   72  54  53 E6        30.15F
KALAMAZOO      MOSUNNY   75  56  51 VRB5      30.13F
STURGIS*       MOSUNNY   75  61  60 CALM      30.12S
THREE RIVERS*  FAIR      75  61  60 CALM      30.12F

$$
OHZ001>008-015>018-024>025-282000-
NORTHWEST OHIO

CITY           SKY/WX    TMP DP  RH WIND       PRES   REMARKS
DEFIANCE       MOSUNNY   78  59  51 MISG      30.12F
FINDLAY        PTSUNNY   78  58  49 VRB6      30.11F
TOLEDO EXPRESS MOSUNNY   75  57  53 E8        30.12F
TOLEDO METCALF MOSUNNY   73  56  54 E3        30.14F
LIMA           MOSUNNY   77  61  57 CALM      30.12F

$$
&&


USA.gov is the U.S. government's official web portal to all federal, state and local government web resources and services.